[[{"header":{"parameterUnit":"m.s-1","parameterCategory":1,"la1":30.2991,"la2":30.254,"lo1":-89.0895,"lo2":-89.0444,"dy":0.0017,"dx":0.0017,"nx":28,"ny":28,"refTime":"2023-11-04T09:00:00:Z","depth":0,"parameterNumber":2,"parameterNumberName":"U-component_of_WINDS"},"data":[0,0,0,0,0,0,0,0,0,0,0,0,0,0,0,0,0,0,0,0,0,0,0,0,0,0,0,0,0,0,0,0,0,0,0,0,0,0,0,0,0,0,0,0,0,0,0,0,0,0,0,0,0,0,0,0,0,0,-0.7847,-0.7847,0,-0.7901,-0.7902,-0.7903,-0.7849,-0.7847,-0.7845,-0.7843,-0.79,-0.7904,-0.7907,0,0,0,0,0,0,0,0,0,0,0,0,0,-0.7696,-0.77,-0.7847,-0.7847,-0.7848,-0.7901,-0.7902,-0.7903,-0.7849,-0.7847,-0.7844,-0.7842,-0.7899,-0.7903,-0.7907,0,0,0,0,0,0,0,0,0,0,0,0,0,-0.7758,-0.7701,-0.7846,-0.7828,-0.7826,-0.7901,-0.7902,-0.7903,-0.785,-0.7847,-0.7843,-0.784,-0.7898,-0.7903,-0.7908,-0.8004,0,0,-0.7924,-0.7926,0,0,0,0,0,0,0,0,-0.7754,-0.7763,-0.783,-0.7829,-0.7828,-0.7865,-0.787,-0.7937,-0.7851,-0.7841,-0.7842,-0.7839,-0.7891,-0.7897,-0.7914,-0.8007,-0.801,-0.7925,-0.7928,-0.793,-0.7932,0,0,0,0,0,0,0,-0.775,-0.776,-0.7868,-0.7831,-0.783,-0.7817,-0.7822,-0.7883,-0.7883,-0.7842,-0.7838,-0.7845,-0.789,-0.7909,-0.7915,-0.801,-0.7924,-0.7929,-0.7932,-0.7934,-0.8185,-0.8188,0,0,0,0,0,0,-0.7748,-0.7757,-0.7867,-0.787,-0.7782,-0.7822,-0.7828,-0.7856,-0.7883,-0.7883,-0.7848,-0.7842,-0.7902,-0.7909,-0.7917,-0.8032,-0.793,-0.7935,-0.7938,-0.8182,-0.8186,-0.819,0,0,0,0,0,0,-0.7745,-0.7758,-0.7864,-0.7813,-0.7825,-0.7828,-0.786,-0.7859,-0.7878,-0.7887,-0.7887,-0.7867,-0.7899,-0.7909,-0.7983,-0.8033,-0.7937,-0.7942,-0.8177,-0.8183,-0.8188,-0.8263,0,0,0,0,0,0,-0.7741,-0.7757,-0.7794,-0.7814,-0.7828,-0.793,-0.7864,-0.7862,-0.7887,-0.7881,-0.7905,-0.7906,-0.7898,-0.7975,-0.7988,-0.8039,-0.7946,-0.8173,-0.818,-0.8186,-0.8256,-0.827,-0.8282,0,0,0,0,0,-0.7735,-0.7813,-0.7796,-0.781,-0.7874,-0.7933,-0.7941,-0.7929,-0.7891,-0.7928,-0.7934,-0.7905,-0.8025,-0.7983,-0.7997,-0.805,-0.817,-0.8178,-0.8186,-0.825,-0.8267,-0.8282,0,0,0,0,0,0,-0.78,-0.7816,-0.7797,-0.7883,-0.7907,-0.7923,-0.797,-0.7948,-0.7983,-0.7976,-0.796,-0.7966,-0.8044,-0.8054,-0.8007,-0.8145,-0.8091,-0.8102,-0.8136,-0.8152,-0.8165,-0.8162,-0.7951,0,0,0,0,0,-0.7824,-0.787,-0.7881,-0.7956,-0.7969,-0.7968,-0.7993,-0.7981,-0.8006,-0.8016,-0.8026,-0.8051,-0.8094,-0.8123,-0.8164,-0.8256,-0.8261,-0.8299,-0.8312,-0.8323,-0.8333,-0.8383,-0.8401,-0.8215,-0.8215,-0.8215,0,0,-0.7875,-0.7889,-0.7919,-0.797,-0.7987,-0.8035,-0.7977,-0.803,-0.8066,-0.8024,-0.8094,-0.8103,-0.8129,-0.8213,-0.825,-0.8224,-0.8385,-0.8333,-0.8341,-0.8346,-0.8393,-0.8411,-0.8427,-0.8221,-0.822,-0.8219,0,0,-0.7993,-0.8007,-0.8072,-0.809,-0.8116,-0.8114,-0.813,-0.8149,-0.8153,-0.8223,-0.8192,-0.8235,-0.8309,-0.8329,-0.835,-0.8473,-0.8449,-0.8486,-0.8556,-0.8605,-0.8619,-0.8632,-0.8677,-0.8693,-0.8496,-0.8497,-0.8497,0,-0.8053,-0.8124,-0.8108,-0.8164,-0.8187,-0.815,-0.8215,-0.8233,-0.8272,-0.8289,-0.8258,-0.8351,-0.8366,-0.8454,-0.8484,-0.8501,-0.8519,-0.8485,-0.8618,-0.8631,-0.8643,-0.8686,-0.8703,-0.8501,-0.8501,-0.85,-0.85,0,-0.8197,-0.8247,-0.8296,-0.8333,-0.8362,-0.8422,-0.8415,-0.8446,-0.8432,-0.8433,-0.8505,-0.8521,-0.8564,-0.8583,-0.857,-0.867,-0.8653,-0.862,-0.8567,-0.8665,-0.8705,-0.8722,-0.8508,-0.8506,-0.8505,-0.8503,0,0,-0.836,-0.8386,-0.8404,-0.8421,-0.8446,-0.8485,-0.8543,-0.8584,-0.8611,-0.8638,-0.8687,-0.875,-0.872,-0.8743,-0.8731,-0.8774,-0.8872,-0.8737,-0.8737,-0.8762,-0.8983,-0.9009,-0.9028,-0.8854,-0.8858,-0.886,-0.8981,0,-0.8479,-0.858,-0.8567,-0.8664,-0.871,-0.8674,-0.8725,-0.8746,-0.8749,-0.8788,-0.879,-0.8836,-0.8792,-0.8806,-0.8846,-0.8852,-0.8916,-0.8842,-0.8901,-0.8903,-0.8898,-0.9049,-0.9076,-0.919,-0.8997,-0.8999,-0.9001,0,-0.8632,-0.8664,-0.8766,-0.8784,-0.8803,-0.8849,-0.8885,-0.8923,-0.8946,-0.8945,-0.897,-0.895,-0.9008,-0.8952,-0.9033,-0.8983,-0.9005,-0.9011,-0.9015,-0.9022,-0.896,-0.9061,-0.9226,-0.9244,-0.9026,-0.9024,-0.9022,0,-0.8742,-0.881,-0.888,-0.8895,-0.8917,-0.8951,-0.8961,-0.8981,-0.9007,-0.9038,-0.9055,-0.9093,-0.9114,-0.9144,-0.9135,-0.9095,-0.9218,-0.9161,-0.9219,-0.922,-0.9249,-0.9248,-0.9422,-0.9261,-0.9261,-0.926,-0.926,0,-0.8878,-0.8942,-0.893,-0.8973,-0.9044,-0.9027,-0.9098,-0.9104,-0.9121,-0.9165,-0.9136,-0.9178,-0.9163,-0.9204,-0.9197,-0.9265,-0.9275,-0.9276,-0.9274,-0.928,-0.928,-0.9296,-0.9288,-0.9265,-0.9264,-0.9263,-0.9262,0,-0.9014,-0.9008,-0.9082,-0.9096,-0.9101,-0.9153,-0.9165,-0.9206,-0.9205,-0.9261,-0.9273,-0.9272,-0.9318,-0.9312,-0.9364,-0.9359,-0.9445,-0.9432,-0.9437,-0.9435,-0.9494,-0.949,-0.9686,-0.9712,-0.9533,-0.9535,-0.9536,0,-0.9102,-0.915,-0.9169,-0.9196,-0.921,-0.9253,-0.9279,-0.9264,-0.9292,-0.9321,-0.9358,-0.9402,-0.9436,-0.9512,-0.9516,-0.9556,-0.9545,-0.9611,-0.9551,-0.9555,-0.9548,-0.9546,-0.9551,-0.9624,-0.9626,-0.9627,-0.9629,0,-0.9259,-0.9254,-0.9291,-0.9328,-0.936,-0.9388,-0.9413,-0.9437,-0.9424,-0.9457,-0.9504,-0.953,-0.9583,-0.9627,-0.9664,-0.9675,-0.965,-0.9647,-0.9663,-0.9671,-0.9672,-0.9674,-0.9471,-0.9643,-0.9642,-0.9641,-0.964,-0.9639,-0.9375,-0.9416,-0.9436,-0.9479,-0.9496,-0.9521,-0.9559,-0.9563,-0.9602,-0.9643,-0.9631,-0.9685,-0.9705,-0.9752,-0.9767,-0.9809,-0.9784,-0.9807,-0.9813,-0.982,-0.9827,-0.9664,-0.9815,-0.9815,-0.9814,-0.9814,-0.9814,0,-0.9532,-0.9543,-0.9582,-0.9618,-0.9652,-0.9624,-0.9651,-0.9681,-0.9728,-0.9749,-0.9783,-0.9837,-0.9879,-0.9886,-0.9926,-0.9958,-0.9948,-0.9969,-0.9968,-0.9971,-0.9846,-0.9829,-0.9977,-0.9977,-0.9977,-0.9977,-0.9977,-0.9977,-0.9618,-0.9687,-0.9683,-0.976,-0.977,-0.9822,-0.984,-0.9862,-0.9878,-0.994,-0.9975,-0.9978,-0.9994,-1.0034,-1.0072,-1.0072,-1.0089,-1.0115,-1.0112,-0.9996,-0.998,-0.9964,-0.9948,-1.0119,-1.0119,-1.0234,-1.0235,-1.0235]},{"header":{"parameterUnit":"m.s-1","parameterCategory":1,"la1":30.2991,"la2":30.254,"lo1":-89.0895,"lo2":-89.0444,"dy":0.0017,"dx":0.0017,"nx":28,"ny":28,"refTime":"2023-11-04T09:00:00:Z","depth":0,"parameterNumber":3,"parameterNumberName":"V-component_of_WINDS"},"data":[0,0,0,0,0,0,0,0,0,0,0,0,0,0,0,0,0,0,0,0,0,0,0,0,0,0,0,0,0,0,0,0,0,0,0,0,0,0,0,0,0,0,0,0,0,0,0,0,0,0,0,0,0,0,0,0,0,0,-2.8086,-2.8086,0,-2.809,-2.809,-2.809,-2.8062,-2.8061,-2.806,-2.8059,-2.8063,-2.8063,-2.8064,0,0,0,0,0,0,0,0,0,0,0,0,0,-2.8053,-2.8053,-2.8086,-2.8086,-2.8087,-2.809,-2.809,-2.809,-2.8062,-2.8061,-2.806,-2.8059,-2.8062,-2.8063,-2.8064,0,0,0,0,0,0,0,0,0,0,0,0,0,-2.8063,-2.8054,-2.8086,-2.8073,-2.8071,-2.809,-2.809,-2.809,-2.8062,-2.8061,-2.806,-2.8058,-2.8062,-2.8063,-2.8065,-2.8097,0,0,-2.8068,-2.8069,0,0,0,0,0,0,0,0,-2.8062,-2.8064,-2.8075,-2.8074,-2.8072,-2.8074,-2.808,-2.8092,-2.8062,-2.8066,-2.8059,-2.8058,-2.8067,-2.8068,-2.8072,-2.8097,-2.8097,-2.8069,-2.8069,-2.807,-2.807,0,0,0,0,0,0,0,-2.8062,-2.8064,-2.8088,-2.8075,-2.8073,-2.8066,-2.8066,-2.8082,-2.8073,-2.8065,-2.8063,-2.8064,-2.8067,-2.807,-2.8071,-2.8097,-2.8068,-2.807,-2.807,-2.8071,-2.8146,-2.8148,0,0,0,0,0,0,-2.8063,-2.8063,-2.8088,-2.8088,-2.8064,-2.8067,-2.8068,-2.8075,-2.8073,-2.8072,-2.8065,-2.8063,-2.8069,-2.807,-2.8071,-2.8107,-2.807,-2.8071,-2.8072,-2.8145,-2.8147,-2.8148,0,0,0,0,0,0,-2.8062,-2.8065,-2.8088,-2.8075,-2.8077,-2.8069,-2.8078,-2.8076,-2.8079,-2.8073,-2.8071,-2.8071,-2.8068,-2.807,-2.809,-2.8107,-2.8072,-2.8073,-2.8144,-2.8146,-2.8147,-2.818,0,0,0,0,0,0,-2.8062,-2.8065,-2.8078,-2.8076,-2.8078,-2.8107,-2.8079,-2.8077,-2.8082,-2.8079,-2.8078,-2.8076,-2.8067,-2.8088,-2.8091,-2.8108,-2.8074,-2.8142,-2.8145,-2.8147,-2.8177,-2.8182,-2.8187,0,0,0,0,0,-2.806,-2.8087,-2.8079,-2.8082,-2.8094,-2.8108,-2.8109,-2.8098,-2.8083,-2.8095,-2.8091,-2.8076,-2.8105,-2.8091,-2.8094,-2.8111,-2.8141,-2.8144,-2.8147,-2.8175,-2.8181,-2.8187,0,0,0,0,0,0,-2.8092,-2.8087,-2.8077,-2.8104,-2.8107,-2.8103,-2.8118,-2.8106,-2.8113,-2.8109,-2.8095,-2.8095,-2.8118,-2.8117,-2.8101,-2.8141,-2.812,-2.8124,-2.8141,-2.8147,-2.8152,-2.8151,-2.8075,0,0,0,0,0,-2.8102,-2.8114,-2.8109,-2.8133,-2.8135,-2.8126,-2.8132,-2.8123,-2.8125,-2.8126,-2.8123,-2.8125,-2.8134,-2.8141,-2.8149,-2.8177,-2.8176,-2.8191,-2.8196,-2.82,-2.8202,-2.8215,-2.8221,-2.8157,-2.8157,-2.8157,0,0,-2.8123,-2.8121,-2.813,-2.8139,-2.814,-2.8152,-2.8127,-2.8142,-2.815,-2.8128,-2.8147,-2.8145,-2.8146,-2.817,-2.818,-2.817,-2.822,-2.8203,-2.8207,-2.8207,-2.8219,-2.8225,-2.823,-2.8159,-2.8159,-2.8159,0,0,-2.8166,-2.8167,-2.8187,-2.8188,-2.8189,-2.8183,-2.8188,-2.8186,-2.8184,-2.8202,-2.8185,-2.8195,-2.8212,-2.8213,-2.8216,-2.8259,-2.8245,-2.8262,-2.8288,-2.83,-2.8305,-2.831,-2.8323,-2.8329,-2.8265,-2.8265,-2.8265,0,-2.8192,-2.821,-2.8198,-2.8213,-2.8217,-2.8198,-2.8216,-2.8218,-2.8222,-2.8225,-2.8213,-2.8233,-2.8233,-2.8255,-2.8266,-2.8269,-2.8273,-2.8262,-2.8306,-2.831,-2.8314,-2.8327,-2.8332,-2.8267,-2.8267,-2.8267,-2.8267,0,-2.824,-2.8252,-2.8268,-2.8272,-2.8277,-2.8294,-2.8285,-2.8292,-2.8283,-2.8278,-2.8296,-2.8295,-2.8302,-2.8307,-2.8299,-2.8328,-2.8322,-2.8308,-2.8287,-2.8322,-2.8334,-2.8339,-2.827,-2.8269,-2.8269,-2.8268,0,0,-2.8303,-2.83,-2.8305,-2.8306,-2.8306,-2.8315,-2.8331,-2.8337,-2.8343,-2.8347,-2.8358,-2.8372,-2.8359,-2.8363,-2.8354,-2.8366,-2.8397,-2.835,-2.835,-2.8358,-2.8428,-2.8437,-2.8443,-2.8389,-2.839,-2.8391,-2.8427,0,-2.8344,-2.837,-2.8359,-2.8386,-2.8397,-2.8378,-2.8391,-2.8392,-2.8388,-2.8396,-2.8391,-2.8401,-2.8384,-2.8386,-2.8396,-2.8391,-2.8411,-2.8389,-2.8398,-2.8399,-2.8397,-2.8449,-2.8459,-2.8494,-2.8432,-2.8433,-2.8433,0,-2.8395,-2.84,-2.8427,-2.8424,-2.8428,-2.844,-2.8444,-2.8453,-2.8453,-2.8449,-2.8452,-2.8441,-2.8455,-2.8435,-2.8453,-2.8438,-2.8442,-2.844,-2.8441,-2.844,-2.8417,-2.8448,-2.8505,-2.8509,-2.8441,-2.844,-2.844,0,-2.8436,-2.8449,-2.8467,-2.8468,-2.8465,-2.8474,-2.8473,-2.8472,-2.8476,-2.8481,-2.8483,-2.8489,-2.8491,-2.8496,-2.8486,-2.8473,-2.8505,-2.8485,-2.8501,-2.8501,-2.8507,-2.8507,-2.8564,-2.8513,-2.8513,-2.8513,-2.8513,0,-2.8481,-2.8498,-2.8485,-2.8496,-2.8514,-2.8502,-2.852,-2.8517,-2.8516,-2.8525,-2.8511,-2.852,-2.8507,-2.8514,-2.8507,-2.8522,-2.8524,-2.852,-2.8518,-2.8521,-2.8521,-2.8521,-2.8518,-2.8514,-2.8514,-2.8514,-2.8513,0,-2.8529,-2.8521,-2.8539,-2.8534,-2.8533,-2.8547,-2.8542,-2.8552,-2.8546,-2.8558,-2.856,-2.8552,-2.856,-2.8551,-2.8558,-2.8553,-2.8573,-2.8568,-2.8573,-2.8571,-2.8587,-2.8585,-2.8645,-2.8651,-2.8598,-2.8599,-2.8599,0,-2.8558,-2.8571,-2.8567,-2.8572,-2.8572,-2.858,-2.8584,-2.8573,-2.8577,-2.8578,-2.8587,-2.8594,-2.8598,-2.8612,-2.8606,-2.8611,-2.8605,-2.8625,-2.8605,-2.8607,-2.8603,-2.8601,-2.8602,-2.8629,-2.863,-2.863,-2.8631,0,-2.8609,-2.8604,-2.8611,-2.8615,-2.862,-2.8623,-2.8625,-2.863,-2.8618,-2.8624,-2.8631,-2.8635,-2.8642,-2.8648,-2.8652,-2.865,-2.8638,-2.8637,-2.8641,-2.8643,-2.8644,-2.8642,-2.8582,-2.8635,-2.8635,-2.8635,-2.8634,-2.8634,-2.8647,-2.8657,-2.8655,-2.8662,-2.8662,-2.8664,-2.8672,-2.8667,-2.8674,-2.8678,-2.8671,-2.868,-2.8679,-2.8683,-2.8683,-2.8689,-2.8681,-2.8687,-2.8688,-2.8689,-2.869,-2.8645,-2.869,-2.869,-2.869,-2.869,-2.869,0,-2.8696,-2.8694,-2.8701,-2.8703,-2.8708,-2.8697,-2.8698,-2.8703,-2.8711,-2.8711,-2.8716,-2.8724,-2.873,-2.8724,-2.8729,-2.8735,-2.873,-2.8737,-2.8735,-2.8735,-2.8699,-2.8694,-2.8741,-2.8741,-2.8741,-2.8741,-2.8741,-2.8741,-2.8722,-2.8737,-2.8731,-2.8746,-2.8744,-2.8752,-2.8754,-2.8755,-2.8755,-2.8764,-2.8769,-2.8765,-2.8763,-2.8767,-2.8772,-2.877,-2.8771,-2.878,-2.8776,-2.8743,-2.8737,-2.8733,-2.8728,-2.8781,-2.8781,-2.8811,-2.8811,-2.8812]}]]